K63 G. Pascoli Observatory, Castelvecchio Pascoli. Observer R. Bacci. 0.41-m
f/3.75 0.41m f/3.2 Newton + CCD.
K74 Muensterschwarzach Observatory, Schwarzach. Observer C. Gerhard. 0.30-m
f/3.75 reflector + CMO.
K83 Beppe Forti Astronomical Observatory, Montelupo. Observers M. Tombelli,
M. Lombardo, M. Iozzi, A. Mazzanti, A. Squilloni, L. Grazzini, T. Bitossi,
E. Venticinque. Measurers M. Tombelli, F. Bernardi. 0.40-m f/8 Ritchey-
Chretien + CCD.
L47 Osservatorio Astronomico, Piobbico. Observers A. Teseo, A. Annamelia.
Measurer A. Teseo. 0.20-m f/6.3 Schmidt-Cassegrain + CCD.
L65 Bredenkamp Observatory, Bremen. Observer H. Duin. 0.23-m f/6.3 reflector
+ CMO.
L99 Novosilky. Observer A. M. Kozhukhov. 0.30-m f/1.0 astrograf + CMO.
M45 Starhopper Observatory, Sfantu Gheorghe. Observer F. Ursache. 0.41-m
f/7.5 reflector + CMO.
M50 Virtual Telescope Project, Manciano. Observer G. Masi. 0.36-m f/6.9
Schmidt-Cassegrain + CCD.
T05 ATLAS-HKO, Haleakala. Observers L. Denneau, R. Siverd, J. Tonry, H.
Weiland. Measurers L. Denneau, N. Erasmus, A. Fitzsimmons, A. Lawrence,
J. Robinson, R. Siverd, J. Tonry, H. Weiland. 0.5-m Reflector + CCD.
Y05 SONEAR Wykrota-CEAMIG, Serra da Piedade. Observer C. Jacques. 0.45-m
f/2.9 reflector + CMO.
Z41 Irydeo Observatory, Camarma de Esteruelas. Observer F. Calvo. 0.28-m
f/2.2 reflector + CCD.
Z80 Northolt Branch Observatory. Observer G. Wells. Measurers G. Wells, D.
Bamberger. 0.25-m f/8.0 Ritchey-Chretien + CCD.
Orbital elements:
2023 SN5 Earth MOID = 0.0119 AU
Epoch 2023 Sept. 13.0 TT = JDT 2460200.5 Bell
M 6.07473 (2000.0) P Q
n 0.40440416 Peri. 146.09628 +0.85814076 +0.51338048
a 1.8110300 Node 183.03279 -0.49234841 +0.81961265
e 0.4638909 Incl. 6.41238 -0.14555921 +0.25431395
P 2.44 H 24.90 G 0.15 U 7
Residuals in seconds of arc
230923 703 0.1- 0.0 230923 G34 0.5+ 0.2+ 230923 L47 0.1- 0.0
230923 703 0.5+ 0.1- 230923 Z80 0.2- 0.1+ 230923 204 0.6+ 0.2-
230923 703 (5.1+ 2.6-) 230923 G34 0.7+ 0.2- 230923 204 0.3+ 0.1-
230923 I52 0.3- 0.0 230923 I93 0.1+ 0.1+ 230923 Z41 0.1+ 0.0
230923 I52 0.2- 0.1+ 230923 I93 0.1+ 0.0 230923 M50 0.2- 0.6+
230923 I52 0.2- 0.1+ 230923 I93 0.1+ 0.1- 230923 L47 0.1- 0.4-
230923 I52 0.1- 0.0 230923 I93 0.0 0.1+ 230923 M50 0.7+ 0.0
230923 I52 0.0 0.1- 230923 I93 0.1- 0.0 230923 Z41 0.0 0.0
230923 I52 0.0 0.0 230923 I93 0.0 0.1+ 230923 Z41 0.2- 0.0
230923 I52 0.0 0.0 230923 J95 0.0 0.1+ 230923 K74 0.1- 0.1+
230923 I52 0.2- 0.0 230923 G34 0.2- 0.3- 230923 L65 0.4- 0.4+
230923 718 0.2- 0.4- 230923 J95 0.3- 0.1- 230923 K74 0.0 0.2-
230923 718 0.7- 0.1+ 230923 G34 0.4+ 0.6- 230923 K74 0.0 0.1+
230923 718 0.8- 0.0 230923 J95 0.1- 0.2+ 230923 L65 0.4- 0.3+
230923 718 0.2- 0.3+ 230923 958 0.4+ 0.0 230923 L65 0.3- 0.5+
230923 718 0.3- 0.3+ 230923 G34 0.3- 0.2- 230924 Y05 0.3- 0.2+
230923 L99 0.5+ 1.6- 230923 G34 0.4+ 0.4- 230924 Y05 0.5- 0.1+
230923 L99 1.0+ 1.0- 230923 958 0.5+ 0.1+ 230924 Y05 0.5- 0.1+
230923 L99 1.8+ 0.1- 230923 M45 0.8+ 0.8- 230924 H21 0.2+ 0.3+
230923 A17 0.1+ 0.2+ 230923 958 0.1+ 0.3+ 230924 H21 0.2+ 0.4+
230923 A17 0.2- 0.1+ 230923 M45 0.5+ 0.5- 230924 H21 0.2+ 0.4+
230923 A17 0.1- 0.2+ 230923 K19 0.0 0.2- 230924 H21 0.2+ 0.4+
230923 K63 1.4- 0.6- 230923 M45 0.6+ 0.3- 230924 T05 0.1+ 0.2-
230923 K63 0.4+ 0.2- 230923 K19 0.3+ 0.0 230924 T05 0.3- 0.2+
230923 C77 0.6- 0.4+ 230923 K19 0.1+ 0.2+ 230924 T05 0.1+ 0.1-
230923 C95 0.4+ 0.1- 230923 C23 0.4+ 0.3- 230924 T05 0.3- 0.1+
230923 C77 0.5+ 0.2+ 230923 C23 (1.3+ 0.8-) 230924 T05 0.5+ 0.2-
230923 K63 (0.8+ 1.6-) 230923 C23 0.5+ 0.2- 230924 T05 1.4- 1.0+
230923 C77 0.0 0.0 230923 C23 (0.4- 0.9+) 230924 T05 (2.8+ 1.7-)
230923 C77 0.5+ 0.2- 230923 C23 0.8+ 0.2- 230924 T05 0.1+ 0.3-
230923 C95 0.2+ 0.8- 230923 L47 0.1- 3.1+ 230924 T05 0.3+ 0.4-
230923 G34 0.6+ 0.1+ 230923 L47 0.7+ 0.1+ 230924 900 0.3- 0.2+
230923 Z80 0.3- 0.3- 230923 L47 0.4- 0.0 230924 900 0.3- 0.0
230923 K83 0.1- 0.1- 230923 L47 0.3+ 0.2- 230924 900 0.1+ 0.0
230923 C95 0.1+ 0.2- 230923 204 0.5+ 0.3- 230924 900 0.3- 0.0
230923 K83 0.4- 0.3+ 230923 204 0.4+ 0.2+ 230924 900 0.1- 0.1-
230923 K83 0.3- 0.1+ 230923 204 0.3+ 0.3- 230924 900 0.3- 0.2+
Ephemeris:
2023 SN5 a,e,i = 1.81, 0.46, 6 q = 0.9709
Date TT R. A. (2000) Decl. Delta r Elong. Phase V
2023 08 25 15 01 09.0 +12 33 15 0.1432 0.9721 70.3 101.7 24.3
...
2023 09 09 15 26 44.9 +16 01 07 0.06845 0.9797 64.3 112.1 23.3
...
2023 09 17 16 20 06.8 +24 36 44 0.02886 0.9967 71.6 106.8 21.2
...
2023 09 23 23 09 45.0 +30 36 19 0.01316 1.0148 147.1 32.5 16.9
2023 09 24 00 17 11.7 +21 24 34 0.01589 1.0182 158.4 21.3 17.0
2023 09 25 00 56 58.0 +14 25 36 0.01966 1.0217 161.1 18.6 17.4
...
2023 10 01 02 10 12.1 -00 37 28 0.04851 1.0452 153.9 25.0 19.6
...
2023 10 09 02 28 10.6 -04 49 44 0.09078 1.0818 154.5 23.4 21.0
...
2023 10 24 02 31 53.7 -06 10 13 0.1778 1.1633 159.7 17.2 22.4
M. P. C. Staff (C) Copyright 2023 MPC M.P.E.C. 2023-S189
More information about the Iaude
mailing list